Time,TemperatureF,DewpointF,PressureIn,WindDirection,WindDirectionDegrees,WindSpeedMPH,WindSpeedGustMPH,Humidity,HourlyPrecipIn,Conditions,Clouds,dailyrainin,SoftwareType,DateUTC
2013-07-18 00:01:00,76.4,71.9,30.12,ESE,102,0.0,0.0,86,0.00,,---,0.00,VWS V14.00,2013-07-18 05:01:00,
2013-07-18 00:06:00,76.3,71.8,30.12,ESE,102,0.0,0.0,86,0.00,,---,0.00,VWS V14.00,2013-07-18 05:06:00,
2013-07-18 00:11:00,76.2,71.7,30.12,ESE,102,0.0,0.0,86,0.00,,---,0.00,VWS V14.00,2013-07-18 05:11:00,
2013-07-18 00:16:00,76.1,71.6,30.12,ESE,102,0.0,0.0,86,0.00,,---,0.00,VWS V14.00,2013-07-18 05:16:00,
2013-07-18 00:21:00,76.0,71.5,30.12,ESE,102,0.0,0.0,86,0.00,,---,0.00,VWS V14.00,2013-07-18 05:21:00,
2013-07-18 00:26:00,76.0,71.9,30.12,ESE,102,0.0,0.0,87,0.00,,---,0.00,VWS V14.00,2013-07-18 05:26:00,
2013-07-18 00:31:00,75.9,71.8,30.12,ESE,102,0.0,0.0,87,0.00,,---,0.00,VWS V14.00,2013-07-18 05:31:00,
2013-07-18 00:36:00,75.8,71.7,30.12,ESE,102,0.0,0.0,87,0.00,,---,0.00,VWS V14.00,2013-07-18 05:36:00,
2013-07-18 00:41:00,75.7,71.6,30.12,ESE,102,0.0,0.0,87,0.00,,---,0.00,VWS V14.00,2013-07-18 05:41:00,
2013-07-18 00:46:00,75.7,71.6,30.12,ESE,102,0.0,0.0,87,0.00,,---,0.00,VWS V14.00,2013-07-18 05:46:00,
2013-07-18 00:51:00,75.6,71.8,30.12,ESE,102,0.0,0.0,88,0.00,,---,0.00,VWS V14.00,2013-07-18 05:51:00,
2013-07-18 00:56:00,75.5,71.7,30.12,ESE,102,0.0,0.0,88,0.00,,---,0.00,VWS V14.00,2013-07-18 05:56:00,
2013-07-18 01:01:00,75.4,71.6,30.12,ESE,102,0.0,0.0,88,0.00,,---,0.00,VWS V14.00,2013-07-18 06:01:00,
2013-07-18 01:06:00,75.4,71.6,30.12,ESE,102,0.0,0.0,88,0.00,,---,0.00,VWS V14.00,2013-07-18 06:06:00,
2013-07-18 01:11:00,75.3,71.5,30.12,ESE,102,0.0,0.0,88,0.00,,---,0.00,VWS V14.00,2013-07-18 06:11:00,
2013-07-18 01:16:00,75.2,71.4,30.12,ESE,102,0.0,0.0,88,0.00,,---,0.00,VWS V14.00,2013-07-18 06:16:00,
2013-07-18 01:21:00,75.1,71.3,30.12,ESE,102,0.0,0.0,88,0.00,,---,0.00,VWS V14.00,2013-07-18 06:21:00,
2013-07-18 01:26:00,75.1,71.6,30.11,ESE,102,0.0,0.0,89,0.00,,---,0.00,VWS V14.00,2013-07-18 06:26:00,
2013-07-18 01:31:00,74.9,71.4,30.12,ESE,102,0.0,0.0,89,0.00,,---,0.00,VWS V14.00,2013-07-18 06:31:00,
2013-07-18 01:36:00,74.9,71.4,30.12,ESE,102,0.0,0.0,89,0.00,,---,0.00,VWS V14.00,2013-07-18 06:36:00,
2013-07-18 01:41:00,74.8,71.3,30.12,ESE,102,0.0,0.0,89,0.00,,---,0.00,VWS V14.00,2013-07-18 06:41:00,
2013-07-18 01:46:00,74.7,71.2,30.11,ESE,102,0.0,0.0,89,0.00,,---,0.00,VWS V14.00,2013-07-18 06:46:00,
2013-07-18 01:51:00,74.6,71.2,30.11,ESE,102,0.0,0.0,89,0.00,,---,0.00,VWS V14.00,2013-07-18 06:51:00,
2013-07-18 01:56:00,74.5,71.1,30.12,ESE,102,0.0,0.0,89,0.00,,---,0.00,VWS V14.00,2013-07-18 06:56:00,
2013-07-18 02:01:00,74.4,70.9,30.11,ESE,102,0.0,0.0,89,0.00,,---,0.00,VWS V14.00,2013-07-18 07:01:00,
2013-07-18 02:06:00,74.4,70.9,30.11,ESE,102,0.0,0.0,89,0.00,,---,0.00,VWS V14.00,2013-07-18 07:06:00,
2013-07-18 02:11:00,74.3,71.2,30.11,ESE,102,0.0,0.0,90,0.00,,---,0.00,VWS V14.00,2013-07-18 07:11:00,
2013-07-18 02:16:00,74.3,71.2,30.11,ESE,102,0.0,0.0,90,0.00,,---,0.00,VWS V14.00,2013-07-18 07:16:00,
2013-07-18 02:21:00,74.2,71.1,30.11,ESE,102,0.0,0.0,90,0.00,,---,0.00,VWS V14.00,2013-07-18 07:21:00,
2013-07-18 02:26:00,74.2,71.1,30.11,ESE,102,0.0,0.0,90,0.00,,---,0.00,VWS V14.00,2013-07-18 07:26:00,
2013-07-18 02:31:00,74.1,71.0,30.11,ESE,102,0.0,0.0,90,0.00,,---,0.00,VWS V14.00,2013-07-18 07:31:00,
2013-07-18 02:36:00,74.1,71.0,30.11,ESE,102,0.0,0.0,90,0.00,,---,0.00,VWS V14.00,2013-07-18 07:36:00,
2013-07-18 02:41:00,74.1,71.0,30.11,ESE,102,0.0,0.0,90,0.00,,---,0.00,VWS V14.00,2013-07-18 07:41:00,
2013-07-18 02:46:00,74.0,70.9,30.10,ESE,102,0.0,0.0,90,0.00,,---,0.00,VWS V14.00,2013-07-18 07:46:00,
2013-07-18 02:51:00,74.0,70.9,30.10,ESE,102,0.0,0.0,90,0.00,,---,0.00,VWS V14.00,2013-07-18 07:51:00,
2013-07-18 02:56:00,73.9,70.8,30.10,ESE,102,0.0,0.0,90,0.00,,---,0.00,VWS V14.00,2013-07-18 07:56:00,
2013-07-18 03:01:00,73.9,70.8,30.11,ESE,102,0.0,0.0,90,0.00,,---,0.00,VWS V14.00,2013-07-18 08:01:00,
2013-07-18 03:06:00,73.8,70.7,30.11,ESE,102,0.0,0.0,90,0.00,,---,0.00,VWS V14.00,2013-07-18 08:06:00,
2013-07-18 03:11:00,73.8,70.7,30.11,ESE,102,0.0,0.0,90,0.00,,---,0.00,VWS V14.00,2013-07-18 08:11:00,
2013-07-18 03:16:00,73.8,71.0,30.11,ESE,102,0.0,0.0,91,0.00,,---,0.00,VWS V14.00,2013-07-18 08:16:00,
2013-07-18 03:21:00,73.8,71.0,30.11,ESE,102,0.0,0.0,91,0.00,,---,0.00,VWS V14.00,2013-07-18 08:21:00,
2013-07-18 03:26:00,73.8,71.0,30.10,ESE,102,0.0,0.0,91,0.00,,---,0.00,VWS V14.00,2013-07-18 08:26:00,
2013-07-18 03:31:00,73.7,70.9,30.11,ESE,102,0.0,0.0,91,0.00,,---,0.00,VWS V14.00,2013-07-18 08:31:00,
2013-07-18 03:36:00,73.8,71.0,30.11,ESE,102,0.0,0.0,91,0.00,,---,0.00,VWS V14.00,2013-07-18 08:36:00,
2013-07-18 03:41:00,73.7,70.9,30.10,ESE,102,0.0,0.0,91,0.00,,---,0.00,VWS V14.00,2013-07-18 08:41:00,
2013-07-18 03:46:00,73.5,70.7,30.10,ESE,102,0.0,0.0,91,0.00,,---,0.00,VWS V14.00,2013-07-18 08:46:00,
2013-07-18 03:51:00,73.4,70.6,30.10,ESE,102,0.0,0.0,91,0.00,,---,0.00,VWS V14.00,2013-07-18 08:51:00,
2013-07-18 03:56:00,73.3,70.5,30.11,ESE,102,0.0,0.0,91,0.00,,---,0.00,VWS V14.00,2013-07-18 08:56:00,
2013-07-18 04:01:00,73.2,70.4,30.10,ESE,102,0.0,0.0,91,0.00,,---,0.00,VWS V14.00,2013-07-18 09:01:00,
2013-07-18 04:06:00,73.2,70.4,30.10,ESE,102,0.0,0.0,91,0.00,,---,0.00,VWS V14.00,2013-07-18 09:06:00,
2013-07-18 04:11:00,73.1,70.3,30.10,ESE,102,0.0,0.0,91,0.00,,---,0.00,VWS V14.00,2013-07-18 09:11:00,
2013-07-18 04:16:00,73.1,70.3,30.10,ESE,102,0.0,0.0,91,0.00,,---,0.00,VWS V14.00,2013-07-18 09:16:00,
2013-07-18 04:21:00,73.0,70.2,30.10,ESE,102,0.0,0.0,91,0.00,,---,0.00,VWS V14.00,2013-07-18 09:21:00,
2013-07-18 04:26:00,73.1,70.3,30.10,ESE,102,0.0,0.0,91,0.00,,---,0.00,VWS V14.00,2013-07-18 09:26:00,
2013-07-18 04:31:00,73.1,70.6,30.10,ESE,102,0.0,0.0,92,0.00,,---,0.00,VWS V14.00,2013-07-18 09:31:00,
2013-07-18 04:36:00,73.0,70.5,30.10,ESE,102,0.0,0.0,92,0.00,,---,0.00,VWS V14.00,2013-07-18 09:36:00,
2013-07-18 04:41:00,72.9,70.4,30.10,ESE,102,0.0,0.0,92,0.00,,---,0.00,VWS V14.00,2013-07-18 09:41:00,
2013-07-18 04:46:00,72.8,70.3,30.09,ESE,102,0.0,0.0,92,0.00,,---,0.00,VWS V14.00,2013-07-18 09:46:00,
2013-07-18 04:51:00,72.8,70.3,30.09,ESE,102,0.0,0.0,92,0.00,,---,0.00,VWS V14.00,2013-07-18 09:51:00,
2013-07-18 04:56:00,72.7,70.2,30.10,ESE,102,0.0,0.0,92,0.00,,---,0.00,VWS V14.00,2013-07-18 09:56:00,
2013-07-18 05:01:00,72.6,70.2,30.10,ESE,102,0.0,0.0,92,0.00,,---,0.00,VWS V14.00,2013-07-18 10:01:00,
2013-07-18 05:06:00,72.6,70.2,30.10,ESE,102,0.0,0.0,92,0.00,,---,0.00,VWS V14.00,2013-07-18 10:06:00,
2013-07-18 05:11:00,72.5,70.1,30.10,ESE,102,0.0,0.0,92,0.00,,---,0.00,VWS V14.00,2013-07-18 10:11:00,
2013-07-18 05:16:00,72.5,70.1,30.10,ESE,102,0.0,0.0,92,0.00,,---,0.00,VWS V14.00,2013-07-18 10:16:00,
2013-07-18 05:21:00,72.4,69.9,30.10,ESE,102,0.0,0.0,92,0.00,,---,0.00,VWS V14.00,2013-07-18 10:21:00,
2013-07-18 05:26:00,72.4,69.9,30.10,ESE,102,0.0,0.0,92,0.00,,---,0.00,VWS V14.00,2013-07-18 10:26:00,
2013-07-18 05:31:00,72.3,69.8,30.10,ESE,102,0.0,0.0,92,0.00,,---,0.00,VWS V14.00,2013-07-18 10:31:00,
2013-07-18 05:36:00,72.3,69.8,30.10,ESE,102,0.0,0.0,92,0.00,,---,0.00,VWS V14.00,2013-07-18 10:36:00,
2013-07-18 05:41:00,72.2,69.8,30.11,ESE,102,0.0,0.0,92,0.00,,---,0.00,VWS V14.00,2013-07-18 10:41:00,
2013-07-18 05:46:00,72.2,69.8,30.10,ESE,102,0.0,0.0,92,0.00,,---,0.00,VWS V14.00,2013-07-18 10:46:00,
2013-07-18 05:51:00,72.1,69.7,30.11,ESE,102,0.0,0.0,92,0.00,,---,0.00,VWS V14.00,2013-07-18 10:51:00,
2013-07-18 05:56:00,72.0,69.6,30.11,ESE,102,0.0,0.0,92,0.00,,---,0.00,VWS V14.00,2013-07-18 10:56:00,
2013-07-18 06:01:00,72.0,69.6,30.11,ESE,102,0.0,0.0,92,0.00,,---,0.00,VWS V14.00,2013-07-18 11:01:00,
2013-07-18 06:06:00,71.9,69.4,30.11,ESE,102,0.0,0.0,92,0.00,,---,0.00,VWS V14.00,2013-07-18 11:06:00,
2013-07-18 06:10:00,71.8,69.3,30.11,ESE,102,0.0,0.0,92,0.00,,---,0.00,VWS V14.00,2013-07-18 11:10:00,
2013-07-18 06:15:00,71.8,69.3,30.11,ESE,102,0.0,0.0,92,0.00,,---,0.00,VWS V14.00,2013-07-18 11:15:00,
2013-07-18 06:20:00,71.8,69.3,30.11,ESE,102,0.0,0.0,92,0.00,,---,0.00,VWS V14.00,2013-07-18 11:20:00,
2013-07-18 06:25:00,71.8,69.3,30.11,ESE,102,0.0,0.0,92,0.00,,---,0.00,VWS V14.00,2013-07-18 11:25:00,
2013-07-18 06:30:00,71.6,69.2,30.11,ESE,102,0.0,0.0,92,0.00,,---,0.00,VWS V14.00,2013-07-18 11:30:00,
2013-07-18 06:35:00,71.4,69.3,30.11,ESE,102,0.0,0.0,93,0.00,,---,0.00,VWS V14.00,2013-07-18 11:35:00,
2013-07-18 06:40:00,71.3,68.9,30.11,ESE,102,0.0,0.0,92,0.00,,---,0.00,VWS V14.00,2013-07-18 11:40:00,
2013-07-18 06:45:00,71.3,69.2,30.11,ESE,102,0.0,0.0,93,0.00,,---,0.00,VWS V14.00,2013-07-18 11:45:00,
2013-07-18 06:50:00,71.3,69.2,30.11,ESE,102,0.0,0.0,93,0.00,,---,0.00,VWS V14.00,2013-07-18 11:50:00,
2013-07-18 06:56:00,71.3,69.2,30.11,ESE,102,0.0,0.0,93,0.00,,---,0.00,VWS V14.00,2013-07-18 11:56:00,
2013-07-18 07:00:00,71.5,69.4,30.12,ESE,102,0.0,0.0,93,0.00,,---,0.00,VWS V14.00,2013-07-18 12:00:00,
2013-07-18 07:05:00,71.8,69.7,30.12,ESE,102,0.0,0.0,93,0.00,,---,0.00,VWS V14.00,2013-07-18 12:05:00,
2013-07-18 07:10:00,71.9,69.8,30.12,ESE,102,0.0,0.0,93,0.00,,---,0.00,VWS V14.00,2013-07-18 12:10:00,
2013-07-18 07:15:00,72.1,70.0,30.12,ESE,102,0.0,0.0,93,0.00,,---,0.00,VWS V14.00,2013-07-18 12:15:00,
2013-07-18 07:20:00,72.5,70.7,30.12,ESE,102,0.0,0.0,94,0.00,,---,0.00,VWS V14.00,2013-07-18 12:20:00,
2013-07-18 07:25:00,73.0,71.2,30.12,ESE,102,0.0,0.0,94,0.00,,---,0.00,VWS V14.00,2013-07-18 12:25:00,
2013-07-18 07:30:00,73.5,71.7,30.12,ESE,102,0.0,0.0,94,0.00,,---,0.00,VWS V14.00,2013-07-18 12:30:00,
2013-07-18 07:35:00,73.7,71.9,30.12,ESE,102,0.0,0.0,94,0.00,,---,0.00,VWS V14.00,2013-07-18 12:35:00,
2013-07-18 07:40:00,74.0,72.2,30.12,ESE,102,0.0,0.0,94,0.00,,---,0.00,VWS V14.00,2013-07-18 12:40:00,
2013-07-18 07:45:00,74.1,71.9,30.12,ESE,102,0.0,0.0,93,0.00,,---,0.00,VWS V14.00,2013-07-18 12:45:00,
2013-07-18 07:50:00,74.3,72.5,30.13,ESE,102,0.0,0.0,94,0.00,,---,0.00,VWS V14.00,2013-07-18 12:50:00,
2013-07-18 07:55:00,74.5,72.3,30.13,ESE,102,0.0,0.0,93,0.00,,---,0.00,VWS V14.00,2013-07-18 12:55:00,
2013-07-18 08:00:00,74.7,72.6,30.13,ESE,102,0.0,0.0,93,0.00,,---,0.00,VWS V14.00,2013-07-18 13:00:00,
2013-07-18 08:05:00,75.2,73.4,30.12,ESE,102,0.0,0.0,94,0.00,,---,0.00,VWS V14.00,2013-07-18 13:05:00,
2013-07-18 08:10:00,75.7,73.8,30.12,ESE,102,0.0,0.0,94,0.00,,---,0.00,VWS V14.00,2013-07-18 13:10:00,
2013-07-18 08:15:00,76.2,74.0,30.12,ESE,102,0.0,0.0,93,0.00,,---,0.00,VWS V14.00,2013-07-18 13:15:00,
2013-07-18 08:20:00,76.6,74.4,30.13,ESE,102,0.0,0.0,93,0.00,,---,0.00,VWS V14.00,2013-07-18 13:20:00,
2013-07-18 08:25:00,77.1,74.9,30.13,ESE,102,0.0,0.0,93,0.00,,---,0.00,VWS V14.00,2013-07-18 13:25:00,
2013-07-18 08:30:00,77.5,75.0,30.13,ESE,102,0.0,4.0,92,0.00,,---,0.00,VWS V14.00,2013-07-18 13:30:00,
2013-07-18 08:35:00,77.8,75.0,30.13,ESE,102,0.0,0.0,91,0.00,,---,0.00,VWS V14.00,2013-07-18 13:35:00,
2013-07-18 08:40:00,78.3,75.1,30.13,ESE,102,2.0,5.0,90,0.00,,---,0.00,VWS V14.00,2013-07-18 13:40:00,
2013-07-18 08:45:00,78.7,75.2,30.13,ESE,102,1.0,4.0,89,0.00,,---,0.00,VWS V14.00,2013-07-18 13:45:00,
2013-07-18 08:50:00,79.4,75.2,30.13,ESE,102,0.0,0.0,87,0.00,,---,0.00,VWS V14.00,2013-07-18 13:50:00,
2013-07-18 08:55:00,79.8,74.9,30.13,ESE,102,0.0,0.0,85,0.00,,---,0.00,VWS V14.00,2013-07-18 13:55:00,
2013-07-18 09:00:00,80.2,74.6,30.12,ESE,102,0.0,3.0,83,0.00,,---,0.00,VWS V14.00,2013-07-18 14:00:00,
2013-07-18 09:05:00,80.7,74.0,30.12,ESE,118,4.0,5.0,80,0.00,,---,0.00,VWS V14.00,2013-07-18 14:05:00,
2013-07-18 09:10:00,81.3,74.5,30.12,ESE,119,2.0,6.0,80,0.00,,---,0.00,VWS V14.00,2013-07-18 14:10:00,
2013-07-18 09:15:00,81.6,74.1,30.12,SE,132,4.0,6.0,78,0.00,,---,0.00,VWS V14.00,2013-07-18 14:15:00,
2013-07-18 09:20:00,81.9,74.0,30.12,SE,130,1.0,6.0,77,0.00,,---,0.00,VWS V14.00,2013-07-18 14:20:00,
2013-07-18 09:25:00,82.2,73.9,30.13,SE,137,3.0,6.0,76,0.00,,---,0.00,VWS V14.00,2013-07-18 14:25:00,
2013-07-18 09:30:00,82.6,74.3,30.13,SE,138,4.0,5.0,76,0.00,,---,0.00,VWS V14.00,2013-07-18 14:30:00,
2013-07-18 09:35:00,82.9,73.8,30.12,SSE,153,5.0,6.0,74,0.00,,---,0.00,VWS V14.00,2013-07-18 14:35:00,
2013-07-18 09:40:00,83.1,73.6,30.12,SSE,157,3.0,7.0,73,0.00,,---,0.00,VWS V14.00,2013-07-18 14:40:00,
2013-07-18 09:45:00,83.3,73.8,30.12,SSE,157,3.0,7.0,73,0.00,,---,0.00,VWS V14.00,2013-07-18 14:45:00,
2013-07-18 09:50:00,83.5,73.9,30.12,SSE,157,4.0,4.0,73,0.00,,---,0.00,VWS V14.00,2013-07-18 14:50:00,
2013-07-18 09:55:00,83.8,74.2,30.12,SSE,157,2.0,5.0,73,0.00,,---,0.00,VWS V14.00,2013-07-18 14:55:00,
2013-07-18 10:00:00,84.1,73.7,30.12,SSE,157,3.0,6.0,71,0.00,,---,0.00,VWS V14.00,2013-07-18 15:00:00,
2013-07-18 10:05:00,84.5,74.5,30.11,SSE,158,4.0,4.0,72,0.00,,---,0.00,VWS V14.00,2013-07-18 15:05:00,
2013-07-18 10:10:00,84.7,73.8,30.11,SSE,158,2.0,6.0,70,0.00,,---,0.00,VWS V14.00,2013-07-18 15:10:00,
2013-07-18 10:15:00,85.0,74.1,30.12,SSE,159,4.0,6.0,70,0.00,,---,0.00,VWS V14.00,2013-07-18 15:15:00,
2013-07-18 10:20:00,85.3,74.0,30.11,South,174,6.0,7.0,69,0.00,,---,0.00,VWS V14.00,2013-07-18 15:20:00,
2013-07-18 10:25:00,85.6,73.8,30.11,South,175,1.0,7.0,68,0.00,,---,0.00,VWS V14.00,2013-07-18 15:25:00,
2013-07-18 10:30:00,85.9,73.7,30.11,South,180,3.0,7.0,67,0.00,,---,0.00,VWS V14.00,2013-07-18 15:30:00,
2013-07-18 10:35:00,86.3,74.5,30.11,South,180,0.0,6.0,68,0.00,,---,0.00,VWS V14.00,2013-07-18 15:35:00,
2013-07-18 10:40:00,86.7,72.6,30.11,South,188,7.0,9.0,63,0.00,,---,0.00,VWS V14.00,2013-07-18 15:40:00,
2013-07-18 10:45:00,87.0,73.4,30.11,South,191,4.0,5.0,64,0.00,,---,0.00,VWS V14.00,2013-07-18 15:45:00,
2013-07-18 10:50:00,87.5,73.4,30.11,SSW,192,1.0,10.0,63,0.00,,---,0.00,VWS V14.00,2013-07-18 15:50:00,
2013-07-18 10:55:00,87.8,72.7,30.11,SSW,192,5.0,5.0,61,0.00,,---,0.00,VWS V14.00,2013-07-18 15:55:00,
2013-07-18 11:00:00,88.1,72.5,30.11,SSW,202,4.0,10.0,60,0.00,,---,0.00,VWS V14.00,2013-07-18 16:00:00,
2013-07-18 11:05:00,88.2,72.6,30.11,SSW,209,6.0,7.0,60,0.00,,---,0.00,VWS V14.00,2013-07-18 16:05:00,
2013-07-18 11:10:00,88.6,72.4,30.11,SSW,209,0.0,4.0,59,0.00,,---,0.00,VWS V14.00,2013-07-18 16:10:00,
2013-07-18 11:15:00,89.1,73.4,30.11,SSW,209,9.0,11.0,60,0.00,,---,0.00,VWS V14.00,2013-07-18 16:15:00,
2013-07-18 11:20:00,89.4,73.7,30.11,SSW,207,6.0,9.0,60,0.00,,---,0.00,VWS V14.00,2013-07-18 16:20:00,
2013-07-18 11:25:00,89.5,72.8,30.11,SSW,213,1.0,8.0,58,0.00,,---,0.00,VWS V14.00,2013-07-18 16:25:00,
2013-07-18 11:30:00,89.2,71.5,30.10,WSW,238,6.0,11.0,56,0.00,,---,0.00,VWS V14.00,2013-07-18 16:30:00,
2013-07-18 11:35:00,89.1,72.9,30.10,WSW,239,7.0,7.0,59,0.00,,---,0.00,VWS V14.00,2013-07-18 16:35:00,
2013-07-18 11:40:00,89.0,72.3,30.10,SW,233,5.0,11.0,58,0.00,,---,0.00,VWS V14.00,2013-07-18 16:40:00,
2013-07-18 11:45:00,89.3,72.1,30.10,SSW,208,4.0,11.0,57,0.00,,---,0.00,VWS V14.00,2013-07-18 16:45:00,
2013-07-18 11:50:00,89.5,71.2,30.10,SSW,208,3.0,6.0,55,0.00,,---,0.00,VWS V14.00,2013-07-18 16:50:00,
2013-07-18 11:55:00,90.0,72.2,30.10,SSW,205,4.0,7.0,56,0.00,,---,0.00,VWS V14.00,2013-07-18 16:55:00,
2013-07-18 12:00:00,90.4,73.1,30.10,SSW,203,4.0,6.0,57,0.00,,---,0.00,VWS V14.00,2013-07-18 17:00:00,
2013-07-18 12:05:00,90.6,71.7,30.10,SSW,203,4.0,9.0,54,0.00,,---,0.00,VWS V14.00,2013-07-18 17:05:00,
2013-07-18 12:10:00,90.8,71.3,30.09,SSW,198,10.0,11.0,53,0.00,,---,0.00,VWS V14.00,2013-07-18 17:10:00,
2013-07-18 12:15:00,91.0,72.1,30.09,SSW,195,4.0,9.0,54,0.00,,---,0.00,VWS V14.00,2013-07-18 17:15:00,
2013-07-18 12:20:00,91.2,71.1,30.09,South,171,4.0,11.0,52,0.00,,---,0.00,VWS V14.00,2013-07-18 17:20:00,
2013-07-18 12:25:00,91.7,72.2,30.09,South,171,0.0,4.0,53,0.00,,---,0.00,VWS V14.00,2013-07-18 17:25:00,
2013-07-18 12:30:00,92.1,70.8,30.09,South,175,11.0,12.0,50,0.00,,---,0.00,VWS V14.00,2013-07-18 17:30:00,
2013-07-18 12:35:00,92.4,69.9,30.09,South,178,3.0,8.0,48,0.00,,---,0.00,VWS V14.00,2013-07-18 17:35:00,
2013-07-18 12:40:00,92.2,69.7,30.09,South,171,2.0,9.0,48,0.00,,---,0.00,VWS V14.00,2013-07-18 17:40:00,
2013-07-18 12:45:00,92.0,71.3,30.09,South,170,4.0,7.0,51,0.00,,---,0.00,VWS V14.00,2013-07-18 17:45:00,
2013-07-18 12:50:00,92.0,70.7,30.09,SSE,161,5.0,9.0,50,0.00,,---,0.00,VWS V14.00,2013-07-18 17:50:00,
2013-07-18 12:55:00,92.1,70.8,30.09,South,169,5.0,10.0,50,0.00,,---,0.00,VWS V14.00,2013-07-18 17:55:00,
2013-07-18 13:00:00,92.2,72.6,30.09,SSW,197,5.0,12.0,53,0.00,,---,0.00,VWS V14.00,2013-07-18 18:00:00,
2013-07-18 13:05:00,92.2,71.5,30.09,SSW,200,4.0,11.0,51,0.00,,---,0.00,VWS V14.00,2013-07-18 18:05:00,
2013-07-18 13:10:00,92.1,70.8,30.08,SSW,200,3.0,7.0,50,0.00,,---,0.00,VWS V14.00,2013-07-18 18:10:00,
2013-07-18 13:15:00,92.1,72.0,30.08,SSW,200,3.0,9.0,52,0.00,,---,0.00,VWS V14.00,2013-07-18 18:15:00,
2013-07-18 13:20:00,92.1,72.5,30.08,South,169,7.0,10.0,53,0.00,,---,0.00,VWS V14.00,2013-07-18 18:20:00,
2013-07-18 13:25:00,92.3,73.3,30.08,SSW,192,9.0,10.0,54,0.00,,---,0.00,VWS V14.00,2013-07-18 18:25:00,
2013-07-18 13:30:00,92.0,72.4,30.08,SSW,201,6.0,7.0,53,0.00,,---,0.00,VWS V14.00,2013-07-18 18:30:00,
2013-07-18 13:35:00,92.2,72.6,30.07,South,190,0.0,9.0,53,0.00,,---,0.00,VWS V14.00,2013-07-18 18:35:00,
2013-07-18 13:40:00,92.2,70.9,30.07,South,190,0.0,7.0,50,0.00,,---,0.00,VWS V14.00,2013-07-18 18:40:00,
2013-07-18 13:45:00,91.9,71.8,30.07,South,190,1.0,3.0,52,0.00,,---,0.00,VWS V14.00,2013-07-18 18:45:00,
2013-07-18 13:50:00,91.6,71.5,30.06,South,188,7.0,7.0,52,0.00,,---,0.00,VWS V14.00,2013-07-18 18:50:00,
2013-07-18 13:55:00,91.5,70.8,30.06,South,188,1.0,9.0,51,0.00,,---,0.00,VWS V14.00,2013-07-18 18:55:00,
2013-07-18 14:00:00,91.6,71.5,30.06,South,188,3.0,3.0,52,0.00,,---,0.00,VWS V14.00,2013-07-18 19:00:00,
2013-07-18 14:05:00,91.8,71.1,30.06,SSE,149,0.0,12.0,51,0.00,,---,0.00,VWS V14.00,2013-07-18 19:05:00,
2013-07-18 14:10:00,92.3,71.6,30.06,SSE,165,5.0,10.0,51,0.00,,---,0.00,VWS V14.00,2013-07-18 19:10:00,
2013-07-18 14:15:00,92.6,72.4,30.05,South,170,4.0,7.0,52,0.00,,---,0.00,VWS V14.00,2013-07-18 19:15:00,
2013-07-18 14:20:00,92.5,71.2,30.05,SSE,167,5.0,11.0,50,0.00,,---,0.00,VWS V14.00,2013-07-18 19:20:00,
2013-07-18 14:25:00,92.5,71.8,30.05,SSE,168,4.0,6.0,51,0.00,,---,0.00,VWS V14.00,2013-07-18 19:25:00,
2013-07-18 14:30:00,92.8,73.2,30.04,South,169,2.0,6.0,53,0.00,,---,0.00,VWS V14.00,2013-07-18 19:30:00,
2013-07-18 14:35:00,92.9,72.1,30.04,South,182,2.0,12.0,51,0.00,,---,0.00,VWS V14.00,2013-07-18 19:35:00,
2013-07-18 14:40:00,93.1,72.9,30.04,South,181,6.0,7.0,52,0.00,,---,0.00,VWS V14.00,2013-07-18 19:40:00,
2013-07-18 14:45:00,93.0,72.8,30.04,SSW,196,6.0,9.0,52,0.00,,---,0.00,VWS V14.00,2013-07-18 19:45:00,
2013-07-18 14:50:00,92.7,71.3,30.03,SSW,196,0.0,6.0,50,0.00,,---,0.00,VWS V14.00,2013-07-18 19:50:00,
2013-07-18 14:55:00,92.4,71.1,30.03,SSW,196,0.0,6.0,50,0.00,,---,0.00,VWS V14.00,2013-07-18 19:55:00,
2013-07-18 15:00:00,92.6,71.8,30.03,SSW,196,4.0,5.0,51,0.00,,---,0.00,VWS V14.00,2013-07-18 20:00:00,
2013-07-18 15:05:00,92.5,71.2,30.02,SSW,205,4.0,9.0,50,0.00,,---,0.00,VWS V14.00,2013-07-18 20:05:00,
2013-07-18 15:10:00,92.1,72.0,30.02,SSW,205,3.0,5.0,52,0.00,,---,0.00,VWS V14.00,2013-07-18 20:10:00,
2013-07-18 15:15:00,92.2,72.1,30.02,SSW,207,5.0,11.0,52,0.00,,---,0.00,VWS V14.00,2013-07-18 20:15:00,
2013-07-18 15:20:00,92.5,71.8,30.01,SSW,207,4.0,12.0,51,0.00,,---,0.00,VWS V14.00,2013-07-18 20:20:00,
2013-07-18 15:25:00,92.8,72.0,30.01,SW,221,5.0,12.0,51,0.00,,---,0.00,VWS V14.00,2013-07-18 20:25:00,
2013-07-18 15:30:00,92.9,70.9,30.01,SW,223,5.0,11.0,49,0.00,,---,0.00,VWS V14.00,2013-07-18 20:30:00,
2013-07-18 15:35:00,93.1,70.5,30.01,SW,224,2.0,7.0,48,0.00,,---,0.00,VWS V14.00,2013-07-18 20:35:00,
2013-07-18 15:40:00,93.3,70.7,30.01,SW,223,7.0,7.0,48,0.00,,---,0.00,VWS V14.00,2013-07-18 20:40:00,
2013-07-18 15:45:00,93.6,71.6,30.00,SW,217,4.0,6.0,49,0.00,,---,0.00,VWS V14.00,2013-07-18 20:45:00,
2013-07-18 15:50:00,94.1,72.0,30.00,SW,217,2.0,3.0,49,0.00,,---,0.00,VWS V14.00,2013-07-18 20:50:00,
2013-07-18 15:55:00,94.3,72.2,30.00,SW,217,4.0,6.0,49,0.00,,---,0.00,VWS V14.00,2013-07-18 20:55:00,
2013-07-18 16:00:00,94.0,71.9,29.99,SW,215,6.0,6.0,49,0.00,,---,0.00,VWS V14.00,2013-07-18 21:00:00,
2013-07-18 16:05:00,93.9,70.6,29.99,SSW,211,9.0,11.0,47,0.00,,---,0.00,VWS V14.00,2013-07-18 21:05:00,
2013-07-18 16:10:00,93.9,70.0,29.99,SSW,209,4.0,11.0,46,0.00,,---,0.00,VWS V14.00,2013-07-18 21:10:00,
2013-07-18 16:15:00,93.9,70.6,29.99,SW,218,3.0,10.0,47,0.00,,---,0.00,VWS V14.00,2013-07-18 21:15:00,
2013-07-18 16:20:00,93.8,70.5,29.99,SW,223,4.0,10.0,47,0.00,,---,0.00,VWS V14.00,2013-07-18 21:20:00,
2013-07-18 16:25:00,93.8,69.9,29.99,SW,223,4.0,8.0,46,0.00,,---,0.00,VWS V14.00,2013-07-18 21:25:00,
2013-07-18 16:30:00,93.9,70.6,29.99,SSW,211,5.0,11.0,47,0.00,,---,0.00,VWS V14.00,2013-07-18 21:30:00,
2013-07-18 16:35:00,94.1,71.4,29.99,SSW,207,5.0,11.0,48,0.00,,---,0.00,VWS V14.00,2013-07-18 21:35:00,
2013-07-18 16:40:00,94.1,70.8,29.99,SSW,201,8.0,12.0,47,0.00,,---,0.00,VWS V14.00,2013-07-18 21:40:00,
2013-07-18 16:45:00,94.0,70.1,29.98,SSW,202,6.0,12.0,46,0.00,,---,0.00,VWS V14.00,2013-07-18 21:45:00,
2013-07-18 16:50:00,93.9,69.3,29.98,SSW,202,2.0,5.0,45,0.00,,---,0.00,VWS V14.00,2013-07-18 21:50:00,
2013-07-18 16:55:00,94.1,70.8,29.98,SSW,207,6.0,8.0,47,0.00,,---,0.00,VWS V14.00,2013-07-18 21:55:00,
2013-07-18 17:00:00,94.1,70.2,29.98,SW,232,3.0,10.0,46,0.00,,---,0.00,VWS V14.00,2013-07-18 22:00:00,
2013-07-18 17:05:00,94.0,71.3,29.98,SW,232,3.0,7.0,48,0.00,,---,0.00,VWS V14.00,2013-07-18 22:05:00,
2013-07-18 17:10:00,94.0,70.7,29.98,SW,232,1.0,5.0,47,0.00,,---,0.00,VWS V14.00,2013-07-18 22:10:00,
2013-07-18 17:15:00,94.2,71.5,29.97,SW,232,5.0,7.0,48,0.00,,---,0.00,VWS V14.00,2013-07-18 22:15:00,
2013-07-18 17:20:00,94.2,71.5,29.97,SW,221,5.0,6.0,48,0.00,,---,0.00,VWS V14.00,2013-07-18 22:20:00,
2013-07-18 17:25:00,94.2,71.5,29.97,SW,220,4.0,7.0,48,0.00,,---,0.00,VWS V14.00,2013-07-18 22:25:00,
2013-07-18 17:30:00,94.2,70.3,29.96,SW,220,0.0,3.0,46,0.00,,---,0.00,VWS V14.00,2013-07-18 22:30:00,
2013-07-18 17:35:00,94.4,70.4,29.96,SW,220,0.0,3.0,46,0.00,,---,0.00,VWS V14.00,2013-07-18 22:35:00,
2013-07-18 17:40:00,94.7,72.0,29.96,SW,219,6.0,7.0,48,0.00,,---,0.00,VWS V14.00,2013-07-18 22:40:00,
2013-07-18 17:45:00,94.7,71.3,29.96,SSW,206,7.0,7.0,47,0.00,,---,0.00,VWS V14.00,2013-07-18 22:45:00,
2013-07-18 17:50:00,94.6,70.6,29.96,SSW,202,3.0,7.0,46,0.00,,---,0.00,VWS V14.00,2013-07-18 22:50:00,
2013-07-18 17:55:00,94.4,70.4,29.96,SSW,202,2.0,9.0,46,0.00,,---,0.00,VWS V14.00,2013-07-18 22:55:00,
2013-07-18 18:00:00,94.2,71.5,29.96,SW,217,4.0,10.0,48,0.00,,---,0.00,VWS V14.00,2013-07-18 23:00:00,
2013-07-18 18:05:00,94.1,70.8,29.96,SW,217,4.0,7.0,47,0.00,,---,0.00,VWS V14.00,2013-07-18 23:05:00,
2013-07-18 18:10:00,94.1,70.8,29.96,SW,217,2.0,6.0,47,0.00,,---,0.00,VWS V14.00,2013-07-18 23:10:00,
2013-07-18 18:15:00,94.2,70.9,29.95,SW,217,0.0,0.0,47,0.00,,---,0.00,VWS V14.00,2013-07-18 23:15:00,
2013-07-18 18:20:00,94.1,70.8,29.95,SW,217,2.0,7.0,47,0.00,,---,0.00,VWS V14.00,2013-07-18 23:20:00,
2013-07-18 18:25:00,94.2,70.9,29.95,SW,217,3.0,3.0,47,0.00,,---,0.00,VWS V14.00,2013-07-18 23:25:00,
2013-07-18 18:30:00,94.3,70.4,29.95,SSW,213,5.0,7.0,46,0.00,,---,0.00,VWS V14.00,2013-07-18 23:30:00,
2013-07-18 18:35:00,94.2,70.9,29.95,SSW,213,3.0,7.0,47,0.00,,---,0.00,VWS V14.00,2013-07-18 23:35:00,
2013-07-18 18:40:00,94.2,71.5,29.95,SSW,213,1.0,4.0,48,0.00,,---,0.00,VWS V14.00,2013-07-18 23:40:00,
2013-07-18 18:45:00,94.2,70.3,29.95,SSW,213,0.0,5.0,46,0.00,,---,0.00,VWS V14.00,2013-07-18 23:45:00,
2013-07-18 18:50:00,94.2,70.3,29.95,SSW,213,3.0,5.0,46,0.00,,---,0.00,VWS V14.00,2013-07-18 23:50:00,
2013-07-18 18:55:00,94.2,70.9,29.95,SSW,213,4.0,6.0,47,0.00,,---,0.00,VWS V14.00,2013-07-18 23:55:00,
2013-07-18 19:00:00,94.0,70.7,29.95,SSW,213,5.0,7.0,47,0.00,,---,0.00,VWS V14.00,2013-07-19 00:00:00,
2013-07-18 19:05:00,93.7,69.8,29.95,SSW,213,2.0,7.0,46,0.00,,---,0.00,VWS V14.00,2013-07-19 00:05:00,
2013-07-18 19:10:00,93.6,69.7,29.94,SSW,213,3.0,5.0,46,0.00,,---,0.00,VWS V14.00,2013-07-19 00:10:00,
2013-07-18 19:15:00,93.4,70.2,29.94,SSW,213,1.0,5.0,47,0.00,,---,0.00,VWS V14.00,2013-07-19 00:15:00,
2013-07-18 19:20:00,93.2,70.0,29.94,SSW,213,2.0,5.0,47,0.00,,---,0.00,VWS V14.00,2013-07-19 00:20:00,
2013-07-18 19:25:00,93.0,69.8,29.94,SSW,213,1.0,4.0,47,0.00,,---,0.00,VWS V14.00,2013-07-19 00:25:00,
2013-07-18 19:30:00,93.0,71.0,29.94,SSW,213,1.0,3.0,49,0.00,,---,0.00,VWS V14.00,2013-07-19 00:30:00,
2013-07-18 19:35:00,92.8,72.0,29.94,SSW,213,4.0,7.0,51,0.00,,---,0.00,VWS V14.00,2013-07-19 00:35:00,
2013-07-18 19:40:00,92.4,72.2,29.94,SSW,213,2.0,6.0,52,0.00,,---,0.00,VWS V14.00,2013-07-19 00:40:00,
2013-07-18 19:45:00,91.9,71.8,29.95,SSW,213,3.0,5.0,52,0.00,,---,0.00,VWS V14.00,2013-07-19 00:45:00,
2013-07-18 19:50:00,91.5,72.0,29.95,SSW,213,1.0,5.0,53,0.00,,---,0.00,VWS V14.00,2013-07-19 00:50:00,
2013-07-18 19:55:00,91.2,72.8,29.95,SSW,213,3.0,4.0,55,0.00,,---,0.00,VWS V14.00,2013-07-19 00:55:00,
2013-07-18 20:00:00,90.7,72.9,29.95,SSW,213,4.0,9.0,56,0.00,,---,0.00,VWS V14.00,2013-07-19 01:00:00,
2013-07-18 20:05:00,90.1,72.8,29.95,SSW,213,4.0,7.0,57,0.00,,---,0.00,VWS V14.00,2013-07-19 01:05:00,
2013-07-18 20:10:00,89.5,72.8,29.95,SSW,213,4.0,6.0,58,0.00,,---,0.00,VWS V14.00,2013-07-19 01:10:00,
2013-07-18 20:15:00,89.0,72.8,29.95,SSW,213,2.0,6.0,59,0.00,,---,0.00,VWS V14.00,2013-07-19 01:15:00,
2013-07-18 20:20:00,88.5,72.8,29.95,SSW,213,2.0,6.0,60,0.00,,---,0.00,VWS V14.00,2013-07-19 01:20:00,
2013-07-18 20:25:00,88.1,73.0,29.95,SSW,213,2.0,3.0,61,0.00,,---,0.00,VWS V14.00,2013-07-19 01:25:00,
2013-07-18 20:30:00,87.8,73.2,29.95,SSW,213,3.0,3.0,62,0.00,,---,0.00,VWS V14.00,2013-07-19 01:30:00,
2013-07-18 20:35:00,87.4,73.3,29.95,SSW,213,2.0,4.0,63,0.00,,---,0.00,VWS V14.00,2013-07-19 01:35:00,
2013-07-18 20:40:00,87.1,73.4,29.96,SSW,213,2.0,4.0,64,0.00,,---,0.00,VWS V14.00,2013-07-19 01:40:00,
2013-07-18 20:45:00,86.6,73.4,29.96,SSW,213,3.0,3.0,65,0.00,,---,0.00,VWS V14.00,2013-07-19 01:45:00,
2013-07-18 20:50:00,86.2,73.5,29.96,SSW,213,3.0,4.0,66,0.00,,---,0.00,VWS V14.00,2013-07-19 01:50:00,
2013-07-18 20:55:00,85.7,73.5,29.96,SSW,213,3.0,4.0,67,0.00,,---,0.00,VWS V14.00,2013-07-19 01:55:00,
2013-07-18 21:00:00,85.3,73.1,29.96,SSW,213,2.0,4.0,67,0.00,,---,0.00,VWS V14.00,2013-07-19 02:00:00,
2013-07-18 21:05:00,85.0,73.3,29.96,SSW,213,2.0,4.0,68,0.00,,---,0.00,VWS V14.00,2013-07-19 02:05:00,
2013-07-18 21:10:00,84.7,73.4,29.96,SSW,213,2.0,4.0,69,0.00,,---,0.00,VWS V14.00,2013-07-19 02:10:00,
2013-07-18 21:15:00,84.3,73.0,29.96,SSW,213,3.0,3.0,69,0.00,,---,0.00,VWS V14.00,2013-07-19 02:15:00,
2013-07-18 21:20:00,84.1,73.3,29.96,SSW,213,1.0,3.0,70,0.00,,---,0.00,VWS V14.00,2013-07-19 02:20:00,
2013-07-18 21:25:00,83.8,73.4,29.97,SSW,213,0.0,0.0,71,0.00,,---,0.00,VWS V14.00,2013-07-19 02:25:00,
2013-07-18 21:30:00,83.6,73.6,29.96,SSW,213,0.0,0.0,72,0.00,,---,0.00,VWS V14.00,2013-07-19 02:30:00,
2013-07-18 21:35:00,83.4,73.4,29.96,SSW,213,0.0,0.0,72,0.00,,---,0.00,VWS V14.00,2013-07-19 02:35:00,
2013-07-18 21:40:00,83.3,73.3,29.97,SSW,213,0.0,0.0,72,0.00,,---,0.00,VWS V14.00,2013-07-19 02:40:00,
2013-07-18 21:45:00,83.1,73.6,29.97,SSW,213,0.0,0.0,73,0.00,,---,0.00,VWS V14.00,2013-07-19 02:45:00,
2013-07-18 21:50:00,82.9,73.4,29.97,SSW,213,0.0,0.0,73,0.00,,---,0.00,VWS V14.00,2013-07-19 02:50:00,
2013-07-18 21:55:00,82.6,73.5,29.97,SSW,213,0.0,0.0,74,0.00,,---,0.00,VWS V14.00,2013-07-19 02:55:00,
2013-07-18 22:00:00,82.4,73.3,29.97,SSW,213,0.0,0.0,74,0.00,,---,0.00,VWS V14.00,2013-07-19 03:00:00,
2013-07-18 22:05:00,82.2,73.5,29.97,SSW,213,0.0,0.0,75,0.00,,---,0.00,VWS V14.00,2013-07-19 03:05:00,
2013-07-18 22:10:00,82.0,73.3,29.97,SSW,213,0.0,0.0,75,0.00,,---,0.00,VWS V14.00,2013-07-19 03:10:00,
2013-07-18 22:15:00,81.7,73.4,29.97,SSW,213,0.0,0.0,76,0.00,,---,0.00,VWS V14.00,2013-07-19 03:15:00,
2013-07-18 22:20:00,81.4,73.1,29.97,SSW,213,0.0,0.0,76,0.00,,---,0.00,VWS V14.00,2013-07-19 03:20:00,
2013-07-18 22:25:00,81.2,73.3,29.98,SSW,213,0.0,0.0,77,0.00,,---,0.00,VWS V14.00,2013-07-19 03:25:00,
2013-07-18 22:30:00,81.1,73.2,29.98,SSW,213,0.0,0.0,77,0.00,,---,0.00,VWS V14.00,2013-07-19 03:30:00,
2013-07-18 22:35:00,80.9,73.0,29.98,SSW,213,0.0,0.0,77,0.00,,---,0.00,VWS V14.00,2013-07-19 03:35:00,
2013-07-18 22:40:00,80.8,72.9,29.98,SSW,213,0.0,0.0,77,0.00,,---,0.00,VWS V14.00,2013-07-19 03:40:00,
2013-07-18 22:45:00,80.7,73.2,29.98,SSW,213,0.0,0.0,78,0.00,,---,0.00,VWS V14.00,2013-07-19 03:45:00,
2013-07-18 22:50:00,80.6,73.1,29.98,SSW,213,0.0,0.0,78,0.00,,---,0.00,VWS V14.00,2013-07-19 03:50:00,
2013-07-18 22:55:00,80.4,72.9,29.97,SSW,213,0.0,0.0,78,0.00,,---,0.00,VWS V14.00,2013-07-19 03:55:00,
2013-07-18 23:00:00,80.2,72.7,29.97,SSW,213,0.0,0.0,78,0.00,,---,0.00,VWS V14.00,2013-07-19 04:00:00,
2013-07-18 23:01:00,80.2,72.7,29.97,SSW,213,0.0,0.0,78,0.00,,---,0.00,VWS V14.00,2013-07-19 04:01:00,
2013-07-18 23:06:00,80.0,72.9,29.97,SSW,213,0.0,0.0,79,0.00,,---,0.00,VWS V14.00,2013-07-19 04:06:00,
2013-07-18 23:11:00,79.8,72.7,29.97,SSW,213,0.0,0.0,79,0.00,,---,0.00,VWS V14.00,2013-07-19 04:11:00,
2013-07-18 23:16:00,79.7,72.6,29.97,SSW,213,0.0,0.0,79,0.00,,---,0.00,VWS V14.00,2013-07-19 04:16:00,
2013-07-18 23:21:00,79.6,72.5,29.97,SSW,213,0.0,0.0,79,0.00,,---,0.00,VWS V14.00,2013-07-19 04:21:00,
2013-07-18 23:26:00,79.5,72.4,29.97,SSW,213,0.0,0.0,79,0.00,,---,0.00,VWS V14.00,2013-07-19 04:26:00,
2013-07-18 23:31:00,79.3,72.2,29.97,SSW,213,0.0,0.0,79,0.00,,---,0.00,VWS V14.00,2013-07-19 04:31:00,
2013-07-18 23:36:00,79.2,72.5,29.97,SSW,213,0.0,0.0,80,0.00,,---,0.00,VWS V14.00,2013-07-19 04:36:00,
2013-07-18 23:41:00,79.1,72.8,29.97,SSW,213,0.0,0.0,81,0.00,,---,0.00,VWS V14.00,2013-07-19 04:41:00,
2013-07-18 23:46:00,78.9,72.6,29.96,SSW,213,0.0,0.0,81,0.00,,---,0.00,VWS V14.00,2013-07-19 04:46:00,
2013-07-18 23:51:00,78.7,72.4,29.97,SSW,213,0.0,0.0,81,0.00,,---,0.00,VWS V14.00,2013-07-19 04:51:00,
2013-07-18 23:56:00,78.7,72.8,29.97,SSW,213,0.0,0.0,82,0.00,,---,0.00,VWS V14.00,2013-07-19 04:56:00,